| time (UTC) | temp F | wind direction | speed MPH | gust MPH | rain 1hr in | rain 24hr in | rain mn in | humidity % | barometer mb |
| 20260505030503 | 44 | 329 | 0.0 | 0.0 | 0.00 | 0.00 | 0.00 | 63 | 1007.5 |
| 20260505030003 | 44 | 329 | 0.0 | 0.0 | 0.00 | 0.00 | 0.00 | 62 | 1007.5 |
| 20260505025503 | 44 | 329 | 0.0 | 1.0 | 0.00 | 0.00 | 0.00 | 61 | 1007.5 |
| 20260505025004 | 45 | 328 | 0.0 | 1.0 | 0.00 | 0.00 | 0.00 | 60 | 1007.4 |
| 20260505024503 | 45 | 329 | 0.0 | 2.0 | 0.00 | 0.00 | 0.00 | 59 | 1007.4 |
| 20260505024002 | 45 | 328 | 0.0 | 2.0 | 0.00 | 0.00 | 0.00 | 58 | 1007.2 |
| 20260505023503 | 45 | 328 | 1.0 | 2.0 | 0.00 | 0.00 | 0.00 | 58 | 1007.1 |
| 20260505023002 | 46 | 328 | 0.0 | 3.0 | 0.00 | 0.00 | 0.00 | 57 | 1007.1 |
| 20260505022503 | 46 | 328 | 1.0 | 3.0 | 0.00 | 0.00 | 0.00 | 57 | 1007.1 |
| 20260505022003 | 46 | 328 | 1.0 | 2.0 | 0.00 | 0.00 | 0.00 | 56 | 1006.9 |
| 20260505021502 | 46 | 328 | 0.0 | 3.0 | 0.00 | 0.00 | 0.00 | 56 | 1006.9 |
| 20260505021003 | 46 | 328 | 2.0 | 4.0 | 0.00 | 0.00 | 0.00 | 56 | 1006.8 |
| 20260505020502 | 47 | 337 | 2.0 | 4.0 | 0.00 | 0.00 | 0.00 | 55 | 1006.8 |
| 20260505020003 | 47 | 357 | 2.0 | 4.0 | 0.00 | 0.00 | 0.00 | 54 | 1006.8 |
| 20260505015503 | 47 | 351 | 2.0 | 5.0 | 0.00 | 0.00 | 0.00 | 54 | 1006.6 |
| 20260505015003 | 48 | 349 | 2.0 | 5.0 | 0.00 | 0.00 | 0.00 | 53 | 1006.6 |
| 20260505014503 | 48 | 348 | 3.0 | 6.0 | 0.00 | 0.00 | 0.00 | 52 | 1006.5 |
| 20260505014002 | 49 | 343 | 3.0 | 8.0 | 0.00 | 0.00 | 0.00 | 51 | 1006.4 |
| 20260505013503 | 49 | 322 | 3.0 | 8.0 | 0.00 | 0.00 | 0.00 | 51 | 1006.5 |
| 20260505013002 | 50 | 327 | 3.0 | 7.0 | 0.00 | 0.00 | 0.00 | 50 | 1006.3 |
| 20260505012503 | 50 | 323 | 3.0 | 8.0 | 0.00 | 0.00 | 0.00 | 49 | 1006.3 |
| 20260505012002 | 50 | 337 | 2.0 | 9.0 | 0.00 | 0.00 | 0.00 | 49 | 1006.3 |
| 20260505011503 | 50 | 355 | 2.0 | 9.0 | 0.00 | 0.00 | 0.00 | 49 | 1006.1 |
| 20260505011003 | 51 | 331 | 2.0 | 8.0 | 0.00 | 0.00 | 0.00 | 49 | 1006.1 |
| 20260505010503 | 51 | 335 | 5.0 | 8.0 | 0.00 | 0.00 | 0.00 | 48 | 1006.0 |
| 20260505010003 | 51 | 327 | 3.0 | 11.0 | 0.00 | 0.00 | 0.00 | 48 | 1006.0 |
| 20260505005502 | 51 | 330 | 2.0 | 11.0 | 0.00 | 0.00 | 0.00 | 47 | 1006.0 |
| 20260505005004 | 51 | 320 | 4.0 | 13.0 | 0.00 | 0.00 | 0.00 | 48 | 1005.9 |
| 20260505004502 | 52 | 326 | 3.0 | 13.0 | 0.00 | 0.00 | 0.00 | 48 | 1005.7 |